SCP
0 0 0 0 0 0 0 0 0 0 0 0 0 0 0 0 0 0 0 0 0 0 0 0 0 0 0 0 0 0 0 0 0 0 0 0 0 0 0 0 0 0 0 0
0 0 0 0 0 0 0 0 0 0 0 0 0 0 0 0 0 0 0 0 0 0 0 0 0 0 0 0 0 0 0 0 0 0 0 0 0 0 0 0 0 0 0 0
0 0 0 0 0 0 0 0 0 0 0 0 0 0 0 0 0 0 0 0 0 0 0 0 0 0 0 0 0 0 0 0 0 0 0 0 0 0 0 0 0 0 0 0
0 0 0 0 0 0 0 0 0 0 0 0 0 0 0 0 0 0 0 0 0 0 0 0 0 0 0 0 0 0 0 0 0 0 0 0 0 0 0 0 0 0 0 0
0 0 0 0 0 0 0 0 0 0 0 0 0 0 0 0 0 0 0 0 -0 -0 0 0 0 0 0 0 0 0 0 0 0 0 0 0 0 0 0 0 0 0 0 0
0 0 0 0 0 0 0 0 0 0 0 0 0 0 0 0 0 0 0 0 0 0 -0 -0 -0 0 0 0 0 0 0 0 0 0 0 0 0 0 0 0 0 0 0 0
0 0 0 0 0 0 0 0 0 0 0 0 0 0 0 0 0 0 0 0 0 -0 -0 -0 -0 0 -0 0 0 0 0 0 0 0 0 0 0 0 0 0 0 0 0 0
0 0 0 0 0 0 0 0 0 0 0 0 0 0 0 0 0 0 0 -0 -0 -0 -0 -0 -0 -0 0 0 0 0 0 0 0 0 0 0 0 0 0 0 0 0 0 0
0 0 0 0 0 0 0 0 0 0 0 0 0 0 0 0 0 -0 -0 -0 -0 -0 -0 -0 -0 -0 -0 0 0 0 0 0 0 0 0 0 0 0 0 0 0 0 0 0
0 0 0 0 0 0 0 0 0 0 0 0 0 0 0 0 0 -0 -0 -0 -0 -0 -0 0 -0 -0 -0 0 0 0 0 0 0 0 0 0 0 0 0 0 0 0 -0 0
0 0 0 0 0 0 0 0 0 0 0 0 0 0 0 0 -0 -0 -0 -0 -0 -0 0 0 0 -0 -0 0 0 0 0 0 0 0 0 0 0 0 0 0 0 0 -0 -0
0 0 0 0 0 0 0 0 0 0 0 0 0 0 -0 -0 -0 -0 -0 -0 -0 0 0 0 -0 -0 -0 0 0 0 0 0 0 0 0 0 0 0 0 0 0 -0 -0 -0
0 0 0 0 0 0 0 0 0 0 0 -0 -0 -0 -0 -0 -0 -0 -0 -0 -0 0 0 0 -0 0 -0 -0 0 0 0 0 0 0 0 0 0 0 0 0 -0 -0 0 0
0 0 0 0 0 0 0 0 0 0 0 0 0 -0 -0 -0 -0 -0 -0 -0 0 -0 0 0 0 0 0 -0 0 0 0 0 0 0 0 0 0 0 0 0 -0 -0 -0 -0
0 0 0 0 0 0 0 0 0 0 0 0 0 0 0 -0 -0 -0 -0 -0 0 0 0 0 0 0 0 -0 -0 0 0 0 0 0 0 0 0 0 0 0 -0 -0 0 0
0 0 0 0 0 0 0 0 0 0 0 0 0 0 0 -0 -0 -0 -0 -0 0 -0 -0 -0 0 -0 0 -0 -0 0 0 0 0 0 0 0 0 0 0 0 0 0 0 0
0 0 0 0 0 0 0 0 0 0 0 0 0 0 0 -0 -0 -0 -0 -0 -0 -0 0 -0 -0 -0 0 0 0 0 0 0 0 0 0 0 0 0 0 0 0 0 0 0
0 0 0 0 0 0 0 0 0 0 0 0 0 0 0 -0 -0 -0 -0 -0 -0 -0 -0 -0 -0 -0 0 0 0 0 0 0 0 0 0 0 0 0 0 0 0 0 0 0
0 0 0 0 0 0 0 0 0 0 0 0 0 0 -0 -0 -0 -0 -0 -0 -0 -0 -0 -0 -0 0 -0 -0 -0 0 0 0 0 0 0 0 0 0 0 0 -0 0 0 0
-0 -0 -0 0 0 -0 -0 0 0 0 0 0 0 0 -0 -0 -0 -0 -0 -0 -0 -0 -0 -0 -0 -0 -0 -0 -0 -0 -0 0 0 0 0 0 0 0 0 0 -0 -0 0 0
-0 -0 -0 -0 -0 -0 0 0 0 0 0 -0 -0 0 0 -0 -0 -0 -0 -0 0 0 -0 -0 -0 -0 -0 -0 -0 -0 -0 -0 0 0 0 0 0 0 0 0 0 -0 0 0
-0 -0 -0 -0 -0 -0 -0 -0 -0 -0 -0 -0 -0 -0 -0 -0 0 -0 0 -0 -0 0 0 0 0 0 -0 0 -0 -0 -0 -0 -0 0 0 0 0 0 0 0 0 0 0 0
-0 -0 -0 -0 -0 -0 -0 0 0 0 0 0 0 -0 0 -0 -0 0 0 0 -0 0 0 0 0 0 0 -0 -0 -0 -0 0 -0 0 0 0 0 0 0 0 -0 -0 -0 0
-0 -0 -0 0 -0 -0 -0 -0 -0 -0 -0 -0 -0 -0 -0 -0 -0 -0 -0 -0 0 -0 -0 -0 0 0 -0 -0 -0 -0 -0 -0 0 0 -0 -0 0 0 0 0 -0 -0 -0 0
-0 -0 -0 -0 -0 -0 -0 -0 -0 -0 -0 -0 -0 -0 -0 -0 -0 0 -0 -0 -0 -0 -0 -0 -0 0 -0 -0 -0 -0 -0 -0 0 0 0 0 0 0 -0 -0 -0 -0 -0 -0
-0 -0 0 -0 -0 -0 -0 -0 -0 0 -0 -0 0 0 0 0 0 0 0 -0 -0 -0 -0 -0 -0 -0 -0 -0 -0 -0 -0 0 0 0 0 0 0 0 0 -0 -0 -0 -0 -0
-0 -0 -0 -0 -0 -0 -0 -0 -0 0 0 0 0 0 0 0 0 0 0 -0 -0 -0 -0 -0 -0 -0 -0 -0 -0 -0 -0 -0 0 0 0 0 0 0 0 0 -0 -0 0 0
Wind_Speed_500mb
2 4 4 2 6 11 12 9 10 8 12 8 7 12 14 19 15 8 3 5 15 27 35 43 52 60 67 73 80 80 77 73 66 63 62 59 58 55 50 49 54 61 66 69
2 3 3 7 12 14 12 8 10 12 10 10 10 24 20 19 11 3 5 17 27 34 42 53 63 70 74 79 78 73 67 60 57 59 58 55 51 43 46 55 64 70 66 71
4 6 7 11 23 21 11 12 16 15 18 12 8 14 19 11 7 2 14 25 34 44 54 62 67 72 75 73 69 67 61 55 55 55 57 53 46 52 60 72 74 70 70 73
4 5 5 10 8 10 10 2 7 8 9 15 14 20 17 9 2 12 23 33 43 52 60 64 68 68 64 65 63 58 53 53 54 54 54 49 53 63 71 76 81 78 78 73
7 6 11 7 5 4 7 4 4 15 14 20 20 20 4 5 9 19 32 42 51 56 60 66 63 60 62 60 54 50 48 53 55 48 45 51 62 71 75 80 78 77 79 82
5 5 7 9 6 8 2 4 10 21 12 16 17 3 4 7 20 32 40 46 53 56 59 58 56 56 57 55 52 47 47 54 40 42 49 55 65 69 74 70 79 81 80 76
7 4 12 11 8 11 9 9 13 16 25 19 5 7 5 15 26 35 40 45 48 52 54 55 54 52 53 53 50 46 49 42 39 43 50 61 66 64 61 71 75 74 69 61
6 4 12 3 6 5 7 13 27 22 19 20 13 5 8 19 28 34 41 44 48 53 55 55 52 49 51 51 47 43 46 36 37 44 53 63 54 61 63 69 70 65 51 39
12 9 7 5 5 7 13 26 17 22 14 15 8 4 14 20 28 33 41 47 47 50 55 55 51 46 50 47 43 47 42 36 44 48 54 59 53 58 63 65 61 55 48 51
2 5 7 10 9 16 21 23 24 11 3 2 5 10 17 22 29 37 42 48 50 53 56 57 53 49 44 43 44 46 44 40 46 45 56 60 50 52 56 60 56 49 45 42
3 8 12 11 19 18 25 28 17 21 13 9 10 15 21 27 32 36 43 50 53 54 56 57 54 50 44 42 43 45 45 44 45 45 56 55 49 49 54 56 48 45 35 33
9 21 16 9 26 23 23 27 21 12 11 11 14 17 21 29 33 36 42 49 57 55 56 55 53 51 50 45 42 43 45 44 45 46 56 61 54 45 44 46 43 37 20 24
10 14 23 9 32 25 25 26 18 10 11 14 16 17 24 34 36 32 34 40 46 56 58 57 54 54 50 47 43 41 39 39 43 48 53 55 48 46 47 43 35 31 24 19
8 23 10 25 27 25 30 28 18 14 17 21 24 24 32 39 35 30 38 41 40 53 63 61 55 56 53 52 48 41 34 33 40 44 45 47 40 39 32 43 39 33 25 30
12 11 4 21 34 41 32 24 18 16 15 13 16 26 30 41 40 33 37 41 47 53 59 62 61 58 55 58 52 44 40 40 41 41 43 37 36 28 21 37 33 34 32 26
23 16 25 43 49 41 29 19 13 18 13 9 11 18 29 36 38 34 39 44 51 57 61 62 65 63 59 59 54 48 44 39 37 39 39 33 34 31 28 35 29 29 26 18
23 31 39 46 44 33 21 15 11 16 13 10 13 14 24 33 40 43 44 48 51 55 58 63 59 62 61 58 56 52 50 46 41 39 34 33 29 27 33 32 29 18 11 5
9 22 37 44 40 28 17 13 14 14 12 12 11 11 23 36 42 45 49 51 53 58 61 64 64 59 61 64 59 55 53 51 46 44 37 35 30 31 35 39 28 20 30 36
17 33 36 30 30 24 21 20 16 14 14 10 9 14 21 32 39 45 51 58 62 64 66 62 63 63 62 63 65 62 61 58 53 49 42 38 35 34 39 46 41 37 36 35
31 33 37 33 27 23 26 24 19 18 15 12 14 13 16 27 36 45 52 61 63 60 55 58 61 63 63 62 63 67 68 68 63 58 50 42 39 35 36 32 30 29 26 22
44 40 34 32 34 30 29 26 24 24 21 17 16 15 15 23 34 43 53 61 61 59 57 56 58 60 61 62 64 64 66 72 74 68 62 54 43 37 32 28 19 12 7 6
40 34 33 34 34 32 27 24 25 26 24 22 20 16 13 16 25 36 46 52 55 58 59 59 59 55 55 58 62 65 64 65 68 72 70 63 56 47 36 28 22 16 6 6
34 33 32 31 30 27 23 16 15 17 22 24 24 22 20 17 17 30 42 47 52 58 60 62 60 58 55 56 58 62 65 66 62 61 64 67 65 56 47 38 28 21 13 6
40 37 35 32 27 22 20 19 13 9 17 24 26 25 23 23 20 22 30 39 48 54 57 59 59 59 58 57 57 59 61 62 62 60 55 54 59 61 57 48 39 27 18 9
33 30 27 25 23 21 18 17 15 8 11 19 23 25 26 28 27 24 29 38 47 53 56 58 60 60 61 59 56 56 57 57 59 58 58 56 52 52 54 55 50 41 30 20
28 25 23 21 17 15 14 13 12 11 8 16 21 24 25 27 28 28 32 39 46 51 56 60 62 61 61 59 56 55 56 56 56 56 56 55 53 50 47 47 48 49 44 34
29 25 24 24 22 13 9 8 8 11 7 12 19 22 26 29 32 34 36 40 46 50 54 57 59 59 59 57 55 57 56 55 56 57 55 54 53 52 49 44 43 41 42 45
Wind_Direction_500mb
143 114 103 173 174 185 191 183 181 212 207 237 234 185 160 134 131 125 83 343 329 326 322 317 316 314 314 314 313 313 311 310 312 313 312 307 304 302 304 310 313 314 311 309
119 100 238 252 244 234 216 211 237 231 248 216 135 135 150 148 142 120 332 332 325 322 320 318 319 317 314 312 313 312 312 311 313 319 318 314 309 308 310 310 309 305 301 301
243 356 7 301 232 221 201 201 190 208 220 162 162 151 163 157 140 26 330 328 325 323 320 317 315 314 315 314 313 313 313 312 315 316 315 312 308 314 317 316 310 306 303 301
123 14 224 239 288 220 194 256 284 224 176 170 155 159 150 148 111 329 329 325 321 319 316 315 316 317 314 312 314 313 312 315 316 313 312 310 315 316 314 312 309 302 302 300
142 217 296 315 27 107 159 291 307 126 104 97 108 132 133 151 325 333 329 324 320 318 317 317 319 317 313 313 315 314 317 315 315 314 314 322 323 316 314 311 311 306 305 301
168 217 233 241 311 335 160 298 179 127 122 121 117 34 279 280 322 322 322 320 320 322 322 320 321 319 317 317 315 314 315 314 313 317 323 320 315 315 318 316 314 308 299 297
169 199 285 253 289 329 96 233 132 129 137 137 106 168 214 307 316 322 323 326 329 329 328 328 326 321 316 318 318 314 312 308 317 321 316 315 314 321 313 320 312 309 308 297
141 165 267 11 333 190 203 136 139 129 129 119 137 154 312 323 326 334 341 342 341 336 334 336 334 325 318 317 318 315 310 310 310 312 318 322 318 323 319 322 322 321 317 301
173 210 237 323 212 137 137 138 132 121 119 120 133 2 345 348 357 360 359 354 349 342 338 341 337 331 323 322 321 320 314 307 311 317 326 329 318 326 323 323 323 319 319 317
60 1 247 201 155 161 147 137 124 95 122 147 72 25 14 14 5 360 358 355 351 348 346 341 341 338 329 324 321 319 312 308 311 325 331 335 321 319 319 327 327 318 315 313
275 301 320 231 196 155 148 148 160 137 125 88 52 42 29 16 6 2 360 358 358 351 346 343 344 343 337 331 325 321 315 309 312 325 327 330 331 330 326 329 328 319 306 316
220 211 187 238 194 187 164 151 138 123 97 69 49 34 18 7 358 354 356 357 358 356 351 348 350 351 347 340 329 324 316 314 319 322 324 334 339 331 335 336 341 329 306 322
225 241 195 158 160 164 165 156 144 116 75 76 56 39 27 14 5 357 355 351 358 359 356 355 356 356 353 349 344 336 326 323 319 322 327 332 331 333 326 339 347 358 343 326
202 156 150 163 167 171 166 156 143 117 102 88 64 52 31 19 11 8 7 359 6 7 1 1 1 1 359 357 353 350 342 335 330 329 329 330 332 335 328 327 336 344 349 331
218 208 222 175 160 158 156 145 141 131 122 94 60 39 26 18 15 15 10 5 15 14 9 5 7 4 6 6 2 358 356 350 342 342 345 347 347 331 330 323 331 330 335 341
147 157 163 161 153 146 142 139 142 145 139 99 72 43 28 21 23 26 21 17 20 14 15 11 9 8 10 10 7 6 6 4 -0 357 354 2 10 3 349 338 343 330 332 339
139 125 149 148 146 140 133 124 129 144 131 100 73 54 27 27 29 31 30 29 28 23 18 20 13 12 15 16 12 12 12 11 12 12 14 16 13 19 2 351 341 333 329 143
150 180 171 158 152 141 142 144 137 143 130 95 72 58 35 32 29 28 29 28 29 28 22 24 19 17 20 24 19 21 21 20 20 21 22 27 36 28 21 39 43 70 102 107
171 161 159 154 150 141 139 139 135 127 118 104 72 64 45 39 34 32 29 28 26 23 21 21 22 22 23 26 26 27 29 28 28 31 30 35 45 41 43 59 65 81 84 81
156 154 142 138 140 137 131 126 113 114 103 81 64 71 50 39 32 31 33 34 28 21 16 18 21 22 25 28 29 32 34 34 32 32 35 36 41 48 52 67 69 71 82 85
142 139 136 136 134 122 117 113 100 90 88 77 64 60 47 35 26 23 28 28 23 21 21 20 20 20 22 27 31 33 33 38 37 32 32 33 36 42 46 51 63 81 83 68
139 136 137 140 140 131 120 108 92 84 75 65 60 54 40 31 27 24 27 25 19 18 21 22 21 18 20 25 30 33 34 35 38 37 33 32 32 34 36 35 37 33 41 246
136 135 137 141 138 137 141 128 109 82 65 54 45 41 36 28 15 13 20 18 15 14 16 18 18 18 20 23 26 30 33 33 34 34 35 34 32 31 30 27 26 26 20 353
135 132 130 133 130 129 135 156 155 94 56 46 40 37 35 29 19 10 10 5 8 9 12 14 13 14 18 21 22 25 28 32 32 32 33 31 32 31 29 26 24 25 22 355
144 149 148 144 136 128 123 146 163 127 57 44 42 38 31 26 22 12 359 0 3 5 10 11 13 14 15 16 19 20 22 25 27 28 29 29 27 27 25 25 22 18 18 7
142 137 152 156 145 128 118 133 152 136 73 54 47 43 33 24 18 11 3 1 1 3 6 8 8 11 13 14 15 16 17 16 18 22 23 25 25 25 21 17 14 19 17 10
139 137 139 146 160 151 133 125 158 150 96 40 37 39 25 16 12 10 6 2 1 2 4 5 5 7 10 11 15 14 13 13 12 12 16 18 18 17 18 18 8 2 8 12
Wind_Speed_850mb
2 4 4 2 6 11 12 9 10 8 12 8 7 12 14 19 15 8 3 5 15 27 35 43 52 60 67 73 80 80 77 73 66 63 62 59 58 55 50 49 54 61 66 69
2 3 3 7 12 14 12 8 10 12 10 10 10 24 20 19 11 3 5 17 27 34 42 53 63 70 74 79 78 73 67 60 57 59 58 55 51 43 46 55 64 70 66 71
4 6 7 11 23 21 11 12 16 15 18 12 8 14 19 11 7 2 14 25 34 44 54 62 67 72 75 73 69 67 61 55 55 55 57 53 46 52 60 72 74 70 70 73
4 5 5 10 8 10 10 2 7 8 9 15 14 20 17 9 2 12 23 33 43 52 60 64 68 68 64 65 63 58 53 53 54 54 54 49 53 63 71 76 81 78 78 73
7 6 11 7 5 4 7 4 4 15 14 20 20 20 4 5 9 19 32 42 51 56 60 66 63 60 62 60 54 50 48 53 55 48 45 51 62 71 75 80 78 77 79 82
5 5 7 9 6 8 2 4 10 21 12 16 17 3 4 7 20 32 40 46 53 56 59 58 56 56 57 55 52 47 47 54 40 42 49 55 65 69 74 70 79 81 80 76
7 4 12 11 8 11 9 9 13 16 25 19 5 7 5 15 26 35 40 45 48 52 54 55 54 52 53 53 50 46 49 42 39 43 50 61 66 64 61 71 75 74 69 61
6 4 12 3 6 5 7 13 27 22 19 20 13 5 8 19 28 34 41 44 48 53 55 55 52 49 51 51 47 43 46 36 37 44 53 63 54 61 63 69 70 65 51 39
12 9 7 5 5 7 13 26 17 22 14 15 8 4 14 20 28 33 41 47 47 50 55 55 51 46 50 47 43 47 42 36 44 48 54 59 53 58 63 65 61 55 48 51
2 5 7 10 9 16 21 23 24 11 3 2 5 10 17 22 29 37 42 48 50 53 56 57 53 49 44 43 44 46 44 40 46 45 56 60 50 52 56 60 56 49 45 42
3 8 12 11 19 18 25 28 17 21 13 9 10 15 21 27 32 36 43 50 53 54 56 57 54 50 44 42 43 45 45 44 45 45 56 55 49 49 54 56 48 45 35 33
9 21 16 9 26 23 23 27 21 12 11 11 14 17 21 29 33 36 42 49 57 55 56 55 53 51 50 45 42 43 45 44 45 46 56 61 54 45 44 46 43 37 20 24
10 14 23 9 32 25 25 26 18 10 11 14 16 17 24 34 36 32 34 40 46 56 58 57 54 54 50 47 43 41 39 39 43 48 53 55 48 46 47 43 35 31 24 19
8 23 10 25 27 25 30 28 18 14 17 21 24 24 32 39 35 30 38 41 40 53 63 61 55 56 53 52 48 41 34 33 40 44 45 47 40 39 32 43 39 33 25 30
12 11 4 21 34 41 32 24 18 16 15 13 16 26 30 41 40 33 37 41 47 53 59 62 61 58 55 58 52 44 40 40 41 41 43 37 36 28 21 37 33 34 32 26
23 16 25 43 49 41 29 19 13 18 13 9 11 18 29 36 38 34 39 44 51 57 61 62 65 63 59 59 54 48 44 39 37 39 39 33 34 31 28 35 29 29 26 18
23 31 39 46 44 33 21 15 11 16 13 10 13 14 24 33 40 43 44 48 51 55 58 63 59 62 61 58 56 52 50 46 41 39 34 33 29 27 33 32 29 18 11 5
9 22 37 44 40 28 17 13 14 14 12 12 11 11 23 36 42 45 49 51 53 58 61 64 64 59 61 64 59 55 53 51 46 44 37 35 30 31 35 39 28 20 30 36
17 33 36 30 30 24 21 20 16 14 14 10 9 14 21 32 39 45 51 58 62 64 66 62 63 63 62 63 65 62 61 58 53 49 42 38 35 34 39 46 41 37 36 35
31 33 37 33 27 23 26 24 19 18 15 12 14 13 16 27 36 45 52 61 63 60 55 58 61 63 63 62 63 67 68 68 63 58 50 42 39 35 36 32 30 29 26 22
44 40 34 32 34 30 29 26 24 24 21 17 16 15 15 23 34 43 53 61 61 59 57 56 58 60 61 62 64 64 66 72 74 68 62 54 43 37 32 28 19 12 7 6
40 34 33 34 34 32 27 24 25 26 24 22 20 16 13 16 25 36 46 52 55 58 59 59 59 55 55 58 62 65 64 65 68 72 70 63 56 47 36 28 22 16 6 6
34 33 32 31 30 27 23 16 15 17 22 24 24 22 20 17 17 30 42 47 52 58 60 62 60 58 55 56 58 62 65 66 62 61 64 67 65 56 47 38 28 21 13 6
40 37 35 32 27 22 20 19 13 9 17 24 26 25 23 23 20 22 30 39 48 54 57 59 59 59 58 57 57 59 61 62 62 60 55 54 59 61 57 48 39 27 18 9
33 30 27 25 23 21 18 17 15 8 11 19 23 25 26 28 27 24 29 38 47 53 56 58 60 60 61 59 56 56 57 57 59 58 58 56 52 52 54 55 50 41 30 20
28 25 23 21 17 15 14 13 12 11 8 16 21 24 25 27 28 28 32 39 46 51 56 60 62 61 61 59 56 55 56 56 56 56 56 55 53 50 47 47 48 49 44 34
29 25 24 24 22 13 9 8 8 11 7 12 19 22 26 29 32 34 36 40 46 50 54 57 59 59 59 57 55 57 56 55 56 57 55 54 53 52 49 44 43 41 42 45
Wind_Direction_850mb
143 114 103 173 174 185 191 183 181 212 207 237 234 185 160 134 131 125 83 343 329 326 322 317 316 314 314 314 313 313 311 310 312 313 312 307 304 302 304 310 313 314 311 309
119 100 238 252 244 234 216 211 237 231 248 216 135 135 150 148 142 120 332 332 325 322 320 318 319 317 314 312 313 312 312 311 313 319 318 314 309 308 310 310 309 305 301 301
243 356 7 301 232 221 201 201 190 208 220 162 162 151 163 157 140 26 330 328 325 323 320 317 315 314 315 314 313 313 313 312 315 316 315 312 308 314 317 316 310 306 303 301
123 14 224 239 288 220 194 256 284 224 176 170 155 159 150 148 111 329 329 325 321 319 316 315 316 317 314 312 314 313 312 315 316 313 312 310 315 316 314 312 309 302 302 300
142 217 296 315 27 107 159 291 307 126 104 97 108 132 133 151 325 333 329 324 320 318 317 317 319 317 313 313 315 314 317 315 315 314 314 322 323 316 314 311 311 306 305 301
168 217 233 241 311 335 160 298 179 127 122 121 117 34 279 280 322 322 322 320 320 322 322 320 321 319 317 317 315 314 315 314 313 317 323 320 315 315 318 316 314 308 299 297
169 199 285 253 289 329 96 233 132 129 137 137 106 168 214 307 316 322 323 326 329 329 328 328 326 321 316 318 318 314 312 308 317 321 316 315 314 321 313 320 312 309 308 297
141 165 267 11 333 190 203 136 139 129 129 119 137 154 312 323 326 334 341 342 341 336 334 336 334 325 318 317 318 315 310 310 310 312 318 322 318 323 319 322 322 321 317 301
173 210 237 323 212 137 137 138 132 121 119 120 133 2 345 348 357 360 359 354 349 342 338 341 337 331 323 322 321 320 314 307 311 317 326 329 318 326 323 323 323 319 319 317
60 1 247 201 155 161 147 137 124 95 122 147 72 25 14 14 5 360 358 355 351 348 346 341 341 338 329 324 321 319 312 308 311 325 331 335 321 319 319 327 327 318 315 313
275 301 320 231 196 155 148 148 160 137 125 88 52 42 29 16 6 2 360 358 358 351 346 343 344 343 337 331 325 321 315 309 312 325 327 330 331 330 326 329 328 319 306 316
220 211 187 238 194 187 164 151 138 123 97 69 49 34 18 7 358 354 356 357 358 356 351 348 350 351 347 340 329 324 316 314 319 322 324 334 339 331 335 336 341 329 306 322
225 241 195 158 160 164 165 156 144 116 75 76 56 39 27 14 5 357 355 351 358 359 356 355 356 356 353 349 344 336 326 323 319 322 327 332 331 333 326 339 347 358 343 326
202 156 150 163 167 171 166 156 143 117 102 88 64 52 31 19 11 8 7 359 6 7 1 1 1 1 359 357 353 350 342 335 330 329 329 330 332 335 328 327 336 344 349 331
218 208 222 175 160 158 156 145 141 131 122 94 60 39 26 18 15 15 10 5 15 14 9 5 7 4 6 6 2 358 356 350 342 342 345 347 347 331 330 323 331 330 335 341
147 157 163 161 153 146 142 139 142 145 139 99 72 43 28 21 23 26 21 17 20 14 15 11 9 8 10 10 7 6 6 4 -0 357 354 2 10 3 349 338 343 330 332 339
139 125 149 148 146 140 133 124 129 144 131 100 73 54 27 27 29 31 30 29 28 23 18 20 13 12 15 16 12 12 12 11 12 12 14 16 13 19 2 351 341 333 329 143
150 180 171 158 152 141 142 144 137 143 130 95 72 58 35 32 29 28 29 28 29 28 22 24 19 17 20 24 19 21 21 20 20 21 22 27 36 28 21 39 43 70 102 107
171 161 159 154 150 141 139 139 135 127 118 104 72 64 45 39 34 32 29 28 26 23 21 21 22 22 23 26 26 27 29 28 28 31 30 35 45 41 43 59 65 81 84 81
156 154 142 138 140 137 131 126 113 114 103 81 64 71 50 39 32 31 33 34 28 21 16 18 21 22 25 28 29 32 34 34 32 32 35 36 41 48 52 67 69 71 82 85
142 139 136 136 134 122 117 113 100 90 88 77 64 60 47 35 26 23 28 28 23 21 21 20 20 20 22 27 31 33 33 38 37 32 32 33 36 42 46 51 63 81 83 68
139 136 137 140 140 131 120 108 92 84 75 65 60 54 40 31 27 24 27 25 19 18 21 22 21 18 20 25 30 33 34 35 38 37 33 32 32 34 36 35 37 33 41 246
136 135 137 141 138 137 141 128 109 82 65 54 45 41 36 28 15 13 20 18 15 14 16 18 18 18 20 23 26 30 33 33 34 34 35 34 32 31 30 27 26 26 20 353
135 132 130 133 130 129 135 156 155 94 56 46 40 37 35 29 19 10 10 5 8 9 12 14 13 14 18 21 22 25 28 32 32 32 33 31 32 31 29 26 24 25 22 355
144 149 148 144 136 128 123 146 163 127 57 44 42 38 31 26 22 12 359 0 3 5 10 11 13 14 15 16 19 20 22 25 27 28 29 29 27 27 25 25 22 18 18 7
142 137 152 156 145 128 118 133 152 136 73 54 47 43 33 24 18 11 3 1 1 3 6 8 8 11 13 14 15 16 17 16 18 22 23 25 25 25 21 17 14 19 17 10
139 137 139 146 160 151 133 125 158 150 96 40 37 39 25 16 12 10 6 2 1 2 4 5 5 7 10 11 15 14 13 13 12 12 16 18 18 17 18 18 8 2 8 12